User: anonymous   Login
Location: Newark
(50.4348°N, 30.5552°E)
Time: 18:52:59
(UTC+00:00)
Language:

Transit 2A - Orbit

View from above orbital plane
View from above orbital plane
View from above satellite
View from above satellite

Ground track
Ground track

The orbit data is extracted from the following two-line orbital elements,

1    45U 60007A   20028.45996014 -.00000062  00000-0  11206-4 0  9995
2    45  66.6949  32.4723 0249316  57.3328 305.1556 14.33663645102497
Epoch (UTC): 28 January 2020 11:02:20
Eccentricity: 0.0249316
inclination: 66.6949°
perigee height: 601 km
apogee height: 958 km
right ascension of ascending node: 32.4723°
argument of perigee: 57.3328°
revolutions per day: 14.33663645
mean anomaly at epoch: 305.1556°
orbit number at epoch: 10249

The dashed part of the orbit path shows where the satellite is in the earth's shadow,  

DLR